TimeCDT,TemperatureF,Dew PointF,Humidity,Sea Level PressureIn,VisibilityMPH,Wind Direction,Wind SpeedMPH,Gust SpeedMPH,PrecipitationIn,Events,Conditions,WindDirDegrees,DateUTC
12:15 AM,68.4,58.3,70,30.02,10.0,SSE,6.9,-,N/A,,Clear,150,2013-06-20 05:15:00
12:35 AM,68.2,58.3,71,30.01,10.0,SSE,9.2,-,N/A,,Clear,150,2013-06-20 05:35:00
12:55 AM,68.2,58.3,71,30.01,10.0,SSE,8.1,-,N/A,,Clear,160,2013-06-20 05:55:00
1:15 AM,68.0,58.6,72,30.01,10.0,SSE,8.1,-,N/A,,Clear,160,2013-06-20 06:15:00
1:35 AM,68.0,58.6,72,30.00,10.0,SSE,8.1,-,N/A,,Clear,160,2013-06-20 06:35:00
1:55 AM,67.8,58.6,72,30.01,10.0,SSE,6.9,-,N/A,,Clear,160,2013-06-20 06:55:00
2:15 AM,68.0,58.6,72,30.01,10.0,South,10.4,-,N/A,,Clear,170,2013-06-20 07:15:00
2:35 AM,67.6,58.6,73,30.02,10.0,South,8.1,-,N/A,,Clear,170,2013-06-20 07:35:00
2:55 AM,67.1,58.6,74,30.02,10.0,South,8.1,-,N/A,,Clear,180,2013-06-20 07:55:00
3:15 AM,66.7,58.6,75,30.01,10.0,South,8.1,-,N/A,,Clear,170,2013-06-20 08:15:00
3:35 AM,66.4,58.8,77,30.02,10.0,South,6.9,-,N/A,,Clear,170,2013-06-20 08:35:00
3:55 AM,66.2,59.0,78,30.01,10.0,SSE,6.9,-,N/A,,Clear,160,2013-06-20 08:55:00
4:15 AM,66.2,59.0,78,30.01,10.0,South,6.9,-,N/A,,Clear,170,2013-06-20 09:15:00
4:35 AM,66.2,59.0,78,30.01,10.0,South,8.1,-,N/A,,Clear,170,2013-06-20 09:35:00
4:55 AM,65.8,59.0,79,30.01,10.0,SSE,6.9,-,N/A,,Clear,160,2013-06-20 09:55:00
5:15 AM,66.2,59.0,78,30.01,10.0,SSE,6.9,-,N/A,,Clear,160,2013-06-20 10:15:00
5:35 AM,66.4,59.2,78,30.01,10.0,SSE,4.6,-,N/A,,Clear,150,2013-06-20 10:35:00
5:55 AM,65.5,59.0,80,30.01,10.0,SE,5.8,-,N/A,,Scattered Clouds,140,2013-06-20 10:55:00
6:15 AM,66.4,59.4,78,30.01,10.0,SSE,5.8,-,N/A,,Mostly Cloudy,150,2013-06-20 11:15:00
6:35 AM,66.7,59.5,78,30.02,10.0,SSE,5.8,-,N/A,,Overcast,160,2013-06-20 11:35:00
6:55 AM,67.1,59.7,77,30.02,10.0,SSE,6.9,-,N/A,,Mostly Cloudy,160,2013-06-20 11:55:00
7:15 AM,67.1,59.9,78,30.02,10.0,SSE,4.6,-,N/A,,Scattered Clouds,150,2013-06-20 12:15:00
7:35 AM,68.7,60.4,75,30.02,10.0,SSE,8.1,-,N/A,,Clear,160,2013-06-20 12:35:00
7:55 AM,71.6,60.1,67,30.03,10.0,South,10.4,16.1,N/A,,Clear,170,2013-06-20 12:55:00
8:15 AM,71.2,60.1,68,30.03,10.0,South,12.7,-,N/A,,Scattered Clouds,170,2013-06-20 13:15:00
8:35 AM,72.0,60.8,68,30.04,10.0,South,9.2,-,N/A,,Mostly Cloudy,180,2013-06-20 13:35:00
8:55 AM,73.2,60.8,65,30.04,10.0,South,10.4,-,N/A,,Mostly Cloudy,180,2013-06-20 13:55:00
9:15 AM,74.5,60.4,61,30.03,10.0,South,9.2,-,N/A,,Scattered Clouds,180,2013-06-20 14:15:00
9:35 AM,75.2,60.8,61,30.03,10.0,South,13.8,-,N/A,,Scattered Clouds,190,2013-06-20 14:35:00
9:55 AM,76.6,61.2,59,30.03,10.0,South,11.5,-,N/A,,Scattered Clouds,180,2013-06-20 14:55:00
10:15 AM,78.1,61.2,56,30.03,10.0,South,15.0,18.4,N/A,,Clear,180,2013-06-20 15:15:00
10:35 AM,77.7,61.0,56,30.03,10.0,South,12.7,-,N/A,,Scattered Clouds,180,2013-06-20 15:35:00
10:55 AM,78.4,61.3,56,30.03,10.0,South,15.0,19.6,N/A,,Scattered Clouds,190,2013-06-20 15:55:00
11:15 AM,78.8,61.9,56,30.03,10.0,South,18.4,23.0,N/A,,Clear,180,2013-06-20 16:15:00
11:35 AM,78.3,61.5,56,30.04,10.0,South,17.3,23.0,N/A,,Clear,170,2013-06-20 16:35:00
11:55 AM,76.8,61.5,59,30.04,10.0,South,16.1,20.7,N/A,,Clear,170,2013-06-20 16:55:00
12:15 PM,77.0,61.7,59,30.04,10.0,SSE,15.0,-,N/A,,Scattered Clouds,150,2013-06-20 17:15:00
12:35 PM,78.4,63.1,59,30.03,10.0,SSE,11.5,16.1,N/A,,Scattered Clouds,160,2013-06-20 17:35:00
12:55 PM,78.6,63.1,59,30.02,10.0,South,13.8,19.6,N/A,,Scattered Clouds,170,2013-06-20 17:55:00
1:15 PM,78.6,63.1,59,30.01,10.0,SSE,11.5,-,N/A,,Scattered Clouds,160,2013-06-20 18:15:00
1:35 PM,79.0,64.0,60,30.00,10.0,SSE,13.8,-,N/A,,Scattered Clouds,160,2013-06-20 18:35:00
1:55 PM,79.9,63.9,58,30.01,10.0,SE,9.2,-,N/A,,Clear,140,2013-06-20 18:55:00
2:15 PM,81.0,64.6,57,30.02,10.0,SE,9.2,-,N/A,,Clear,140,2013-06-20 19:15:00
2:35 PM,79.5,64.4,60,29.97,10.0,SE,16.1,20.7,N/A,,Clear,140,2013-06-20 19:35:00
2:55 PM,78.1,64.4,63,29.95,10.0,SSE,17.3,26.5,N/A,,Scattered Clouds,150,2013-06-20 19:55:00
3:15 PM,80.8,65.3,59,29.97,10.0,SE,13.8,21.9,N/A,,Clear,140,2013-06-20 20:15:00
3:35 PM,81.1,66.2,60,29.97,10.0,SE,9.2,-,N/A,,Clear,140,2013-06-20 20:35:00
3:55 PM,82.4,66.4,58,29.96,10.0,SSE,12.7,20.7,N/A,,Clear,160,2013-06-20 20:55:00
4:15 PM,82.8,66.4,58,29.96,10.0,SSE,15.0,-,N/A,,Clear,150,2013-06-20 21:15:00
4:35 PM,82.9,66.6,58,29.96,10.0,SSE,16.1,-,N/A,,Clear,150,2013-06-20 21:35:00
4:55 PM,82.6,65.8,57,29.96,10.0,SSE,13.8,19.6,N/A,,Clear,150,2013-06-20 21:55:00
5:15 PM,83.1,66.0,56,29.95,10.0,SE,12.7,17.3,N/A,,Scattered Clouds,140,2013-06-20 22:15:00
5:35 PM,82.8,65.7,56,29.94,10.0,SE,9.2,-,N/A,,Scattered Clouds,140,2013-06-20 22:35:00
5:55 PM,84.0,64.8,52,29.93,10.0,SSE,9.2,-,N/A,,Scattered Clouds,150,2013-06-20 22:55:00
6:15 PM,83.5,62.2,49,29.94,10.0,SSE,12.7,18.4,N/A,,Scattered Clouds,160,2013-06-20 23:15:00
6:35 PM,82.6,62.6,51,29.94,10.0,SSE,12.7,17.3,N/A,,Mostly Cloudy,160,2013-06-20 23:35:00
6:55 PM,83.5,62.6,49,29.94,10.0,SSE,10.4,16.1,N/A,,Mostly Cloudy,160,2013-06-20 23:55:00
7:15 PM,82.4,62.6,51,29.94,10.0,SSE,10.4,-,N/A,,Scattered Clouds,160,2013-06-21 00:15:00
7:35 PM,81.7,63.0,53,29.94,10.0,SSE,9.2,-,N/A,,Overcast,160,2013-06-21 00:35:00
7:55 PM,81.0,63.1,54,29.94,10.0,SSE,6.9,-,N/A,,Mostly Cloudy,150,2013-06-21 00:55:00
8:15 PM,80.1,63.0,56,29.94,10.0,SSE,9.2,-,N/A,,Scattered Clouds,150,2013-06-21 01:15:00
8:35 PM,79.0,63.7,59,29.94,10.0,SE,6.9,-,N/A,,Clear,130,2013-06-21 01:35:00
8:55 PM,77.5,64.0,63,29.95,10.0,SE,6.9,-,N/A,,Clear,130,2013-06-21 01:55:00
9:15 PM,76.5,63.9,65,29.95,10.0,SE,5.8,-,N/A,,Clear,130,2013-06-21 02:15:00
9:35 PM,75.6,63.7,66,29.96,10.0,ESE,4.6,-,N/A,,Clear,110,2013-06-21 02:35:00
9:55 PM,75.6,63.1,65,29.96,10.0,ESE,5.8,-,N/A,,Scattered Clouds,120,2013-06-21 02:55:00
10:15 PM,75.2,62.8,65,29.96,10.0,SE,8.1,-,N/A,,Scattered Clouds,140,2013-06-21 03:15:00
10:35 PM,74.3,62.6,67,29.95,10.0,SE,10.4,-,N/A,,Clear,130,2013-06-21 03:35:00
10:55 PM,74.5,61.7,64,29.95,10.0,SE,9.2,-,N/A,,Clear,130,2013-06-21 03:55:00
11:15 PM,74.3,61.3,64,29.96,10.0,ESE,5.8,-,N/A,,Scattered Clouds,110,2013-06-21 04:15:00
11:35 PM,74.3,61.2,63,29.95,10.0,ESE,8.1,-,N/A,,Scattered Clouds,110,2013-06-21 04:35:00
11:55 PM,74.3,61.3,64,29.95,10.0,East,10.4,-,N/A,,Scattered Clouds,100,2013-06-21 04:55:00